This demonstration page uses our WeatherBlox Daily Observations layout. Learn more.

Hourly Observations for July 19, 2018

Temp ( °F °C ) Dew Point ( °F °C ) Humidity (%) Winds ( mph kmh ) Pressure ( in mb ) Visibility ( mi km ) Precip ( " mm )
12:15 am 00:15 Partly Cloudy 68 20.2 65 18.3 89 89 E 5 7 29.88 1012 10 16.0934 0 0
12:35 am 00:35 Clear 68 19.9 65 18.3 91 91 SSE 9 15 29.88 1012 10 16.0934 0 0
12:55 am 00:55 Clear 68 20.2 64 18 87 87 S 7 11 29.85 1011 10 16.0934 0 0
1:15 am 01:15 Clear 68 20.1 65 18.1 88 88 S 8 13 29.85 1011 10 16.0934 0 0
1:35 am 01:35 Clear 68 20.2 64 17.8 86 86 SSW 8 13 29.85 1011 10 16.0934 0 0
1:55 am 01:55 Clear 70 20.9 64 17.8 83 83 SSW 8 13 29.85 1011 10 16.0934 0 0
2:15 am 02:15 Clear 70 21.3 65 18.5 84 84 SSW 8 13 29.83 1010 10 16.0934 0 0
2:35 am 02:35 Clear 70 21.2 66 19 87 87 SSW 7 11 29.83 1010 10 16.0934 0 0
2:55 am 02:55 Clear 71 21.5 67 19.3 87 87 SSW 7 11 29.83 1010 10 16.0934 0 0
3:15 am 03:15 Clear 70 21.3 67 19.5 90 90 SW 5 7 29.83 1010 10 16.0934 0 0
3:35 am 03:35 Clear 71 21.5 67 19.6 89 89 SSW 8 13 29.83 1010 10 16.0934 0 0
3:55 am 03:55 Clear 70 21.2 68 19.8 92 92 SSW 6 9 29.83 1010 10 16.0934 0 0
4:15 am 04:15 Clear 70 21.1 68 20 93 93 SSW 7 11 29.83 1010 10 16.0934 0 0
4:35 am 04:35 Clear 70 21.2 68 20 93 93 SW 7 11 29.83 1010 10 16.0934 0 0
4:55 am 04:55 Clear 69 20.8 68 20 95 95 SW 6 9 29.83 1010 10 16.0934 0 0
5:15 am 05:15 Clear 69 20.7 68 19.9 95 95 SW 5 7 29.83 1010 10 16.0934 0 0
5:35 am 05:35 Clear 70 21 68 20.1 95 95 WSW 6 9 29.83 1010 10 16.0934 0 0
5:55 am 05:55 Clear 70 21.1 69 20.3 95 95 WSW 7 11 29.83 1010 10 16.0934 0 0
6:15 am 06:15 Clear 70 21 69 20.5 97 97 WSW 7 11 29.83 1010 10 16.0934 0 0
6:35 am 06:35 Sunny 69 20.8 69 20.3 97 97 NW 10 17 29.83 1010 10 16.0934 0 0
6:55 am 06:55 Sunny 68 20.1 68 20 99 99 WSW 8 13 29.83 1010 7 11.26538 0 0
7:15 am 07:15 Sunny 69 20.6 69 20.5 99 99 W 6 9 29.83 1010 7 11.26538 0 0
7:35 am 07:35 Sunny 71 21.7 70 21.3 98 98 W 7 11 29.83 1010 10 16.0934 0 0
7:55 am 07:55 Sunny 73 22.8 71 21.9 95 95 W 5 7 29.8 1009 10 16.0934 0 0
8:15 am 08:15 Sunny 74 23.3 72 22 92 92 W 6 9 29.8 1009 10 16.0934 0 0
8:35 am 08:35 Sunny 76 24.3 73 22.6 90 90 WNW 6 9 29.8 1009 10 16.0934 0 0
8:55 am 08:55 Sunny 77 25.2 73 23 88 88 NW 6 9 29.8 1009 10 16.0934 0 0
9:15 am 09:15 Sunny 79 25.9 73 23 84 84 NW 6 9 29.83 1010 10 16.0934 0 0
9:35 am 09:35 Sunny 80 26.4 72 22.2 78 78 NNW 5 7 29.8 1009 10 16.0934 0 0
9:55 am 09:55 Sunny 80 26.5 71 21.4 74 74 N 7 11 29.8 1009 10 16.0934 0 0
10:15 am 10:15 Sunny 80 26.4 71 21.7 75 75 N 6 9 29.8 1009 10 16.0934 0 0
10:35 am 10:35 Sunny 80 26.5 70 21.3 73 73 N 7 11 29.8 1009 10 16.0934 0 0
10:55 am 10:55 Sunny 80 26.6 70 21.3 73 73 NNE 7 11 29.8 1009 10 16.0934 0 0
11:15 am 11:15 Sunny 80 26.6 70 20.9 71 71 NNE 8 13 29.8 1009 10 16.0934 0 0
11:35 am 11:35 Sunny 81 27.2 68 20.2 66 66 NNE 7 11 29.8 1009 10 16.0934 0 0
11:55 am 11:55 Sunny 81 27.4 68 19.8 63 63 NE 6 9 29.8 1009 10 16.0934 0 0
12:15 pm 12:15 Sunny 82 27.7 68 20 63 63 N 6 9 29.8 1009 10 16.0934 0 0
12:35 pm 12:35 Sunny 83 28.1 68 20.1 62 62 NNE 5 7 29.8 1009 10 16.0934 0 0
12:55 pm 12:55 Sunny 84 28.7 69 20.5 61 61 NNE 9 15 29.8 1009 10 16.0934 0 0
1:15 pm 13:15 Sunny 84 28.8 69 20.8 62 62 ENE 8 13 29.8 1009 10 16.0934 0 0
1:35 pm 13:35 Sunny 84 29.1 69 20.7 61 61 E 5 7 29.77 1008 10 16.0934 0 0
1:55 pm 13:55 Sunny 83 28.6 69 20.7 62 62 E 7 11 29.77 1008 10 16.0934 0 0
2:15 pm 14:15 Sunny 83 28.6 69 20.4 61 61 ESE 5 7 29.77 1008 10 16.0934 0 0
2:35 pm 14:35 Sunny 84 28.9 68 19.8 58 58 ESE 3 6 29.77 1008 10 16.0934 0 0
2:55 pm 14:55 Sunny 85 29.6 69 20.7 59 59 SE 6 9 29.77 1008 10 16.0934 0 0
3:15 pm 15:15 Sunny 85 29.5 69 20.3 58 58 ESE 3 6 29.77 1008 10 16.0934 0 0
3:35 pm 15:35 Sunny 85 29.6 71 21.6 62 62 SE 3 6 29.77 1008 10 16.0934 0 0
3:55 pm 15:55 Sunny 86 29.8 70 20.9 59 59 Calm 29.74 1007 10 16.0934 0 0
4:15 pm 16:15 Sunny 86 29.9 70 20.9 59 59 SSE 5 7 29.74 1007 10 16.0934 0 0
4:35 pm 16:35 Sunny 86 29.9 69 20.5 57 57 SE 6 9 29.74 1007 10 16.0934 0 0
4:55 pm 16:55 Sunny 86 30.1 68 19.8 54 54 SSE 6 9 29.74 1007 10 16.0934 0 0
5:15 pm 17:15 Sunny 86 30.1 68 20 55 55 SE 6 9 29.74 1007 10 16.0934 0 0
5:35 pm 17:35 Sunny 86 30.1 67 19.6 53 53 SE 3 6 29.74 1007 10 16.0934 0 0
5:55 pm 17:55 Sunny 87 30.3 69 20.4 55 55 ESE 3 6 29.74 1007 10 16.0934 0 0
6:15 pm 18:15 Sunny 86 30 70 21.2 59 59 SE 5 7 29.74 1007 10 16.0934 0 0
6:35 pm 18:35 Sunny 86 29.9 71 21.5 61 61 ESE 3 6 29.74 1007 10 16.0934 0 0
6:55 pm 18:55 Sunny 86 29.8 71 21.5 61 61 Calm 29.71 1006 10 16.0934 0 0
7:15 pm 19:15 Sunny 85 29.5 72 22.3 65 65 E 5 7 29.71 1006 10 16.0934 0 0
7:35 pm 19:35 Sunny 84 29 73 23 70 70 E 5 7 29.74 1007 10 16.0934 0 0
7:55 pm 19:55 Sunny 83 28.1 73 22.7 73 73 ESE 3 6 29.74 1007 10 16.0934 0 0
8:15 pm 20:15 Sunny 82 27.8 73 22.7 74 74 ESE 6 9 29.77 1008 10 16.0934 0 0
8:35 pm 20:35 Sunny 80 26.4 74 23.4 84 84 E 6 9 29.74 1007 10 16.0934 0 0
8:55 pm 20:55 Sunny 77 25.2 74 23.1 88 88 E 5 7 29.77 1008 10 16.0934 0 0
9:15 pm 21:15 Clear 76 24.5 73 23 91 91 E 5 7 29.8 1009 10 16.0934 0 0
9:35 pm 21:35 Clear 76 24.3 73 22.6 90 90 E 5 7 29.8 1009 10 16.0934 0 0
9:55 pm 21:55 Clear 74 23.1 72 22.2 95 95 ENE 6 9 29.8 1009 10 16.0934 0 0
10:15 pm 22:15 Clear 74 23.6 72 22.2 92 92 E 5 7 29.83 1010 10 16.0934 0 0
10:35 pm 22:35 Clear 73 22.5 71 21.5 94 94 ESE 6 9 29.83 1010 10 16.0934 0 0
10:55 pm 22:55 Clear 72 22 70 21.3 96 96 ESE 7 11 29.85 1011 10 16.0934 0 0
11:15 pm 23:15 Clear 71 21.9 70 21.2 96 96 E 5 7 29.85 1011 10 16.0934 0 0
11:35 pm 23:35 Clear 72 22.1 70 21.3 95 95 ESE 5 7 29.85 1011 10 16.0934 0 0
11:55 pm 23:55 Clear 71 21.8 70 21 95 95 SE 5 7 29.85 1011 10 16.0934 0 0

Powered by AerisWeather